FW4701 Weather Reports


Display with metric or nautical units.
time (UTC)temp
F
wind
direction
speed
MPH
gust
MPH
rain 1hr
in
rain 24hr
in
rain mn
in
humidity
%
barometer
mb
20260505055003 61 282 2.0 6.0 0.00 0.35 0.00 45 1002.5
20260505054520 71 105 2.0 6.0 0.00 0.00 0.00 57 1007.4
20260505054514 61 209 1.0 4.0 0.00 0.35 0.00 46 1002.6
20260505054007 61 229 1.0 7.0 0.00 0.35 0.00 45 1002.6
20260505053507 61 266 2.0 7.0 0.00 0.35 0.00 44 1002.7
20260505053019 72 121 0.0 4.0 0.00 0.00 0.00 56 1007.5
20260505053015 61 270 2.0 7.0 0.00 0.35 0.00 43 1002.5
20260505052508 62 265 3.0 7.0 0.00 0.35 0.00 43 1002.4
20260505052004 62 294 2.0 7.0 0.00 0.35 0.00 44 1002.2
20260505051522 62 281 2.0 6.0 0.00 0.35 0.00 45 1002.1
20260505051517 72 176 2.0 6.0 0.00 0.00 0.00 55 1007.2
20260505051014 62 272 2.0 9.0 0.00 0.35 0.00 46 1002.1
20260505050506 62 291 3.0 9.0 0.00 0.35 0.00 46 1001.8
20260505041519 63 265 4.0 12.0 0.00 0.35 0.35 66 1001.3
20260505041507 74 155 1.0 5.0 0.00 0.00 0.00 53 1007.7
20260505041007 63 251 3.0 10.0 0.00 0.35 0.35 67 1001.4
20260505040507 63 294 3.0 7.0 0.00 0.35 0.35 67 1001.2
20260505040024 63 259 2.0 8.0 0.00 0.35 0.35 68 1001.3
20260505040002 74 148 1.0 6.0 0.00 0.00 0.00 53 1007.8
20260505035507 63 200 2.0 9.0 0.00 0.35 0.35 67 1001.2
20260505035007 63 233 4.0 9.0 0.00 0.35 0.35 68 1001.5
20260505034618 74 200 0.0 5.0 0.00 0.00 0.00 53 1007.7
20260505034509 63 220 3.0 9.0 0.00 0.35 0.35 68 1001.5
20260505034004 63 171 3.0 8.0 0.00 0.35 0.35 68 1001.3
20260505033503 63 240 4.0 9.0 0.00 0.35 0.35 68 1001.2
20260505033058 74 143 0.0 5.0 0.00 0.00 0.00 53 1007.7
20260505033012 63 250 4.0 9.0 0.00 0.35 0.35 68 1001.0
20260505032503 63 232 3.0 9.0 0.00 0.35 0.35 68 1000.7
20260505032003 63 230 2.0 10.0 0.00 0.35 0.35 68 1000.6
20260505031556 74 154 1.0 5.0 0.00 0.00 0.00 52 1007.4
20260505031536 63 232 4.0 10.0 0.00 0.35 0.35 69 1000.5
20260505031003 63 289 4.0 9.0 0.00 0.35 0.35 69 1000.5
20260505030507 63 251 3.0 9.0 0.00 0.35 0.35 70 1000.7
20260505030054 74 147 0.0 4.0 0.00 0.00 0.00 53 1007.5
20260505030019 63 259 3.0 11.0 0.00 0.35 0.35 71 1000.9
20260505025507 63 244 4.0 11.0 0.00 0.35 0.35 71 1000.9
20260505025008 63 215 3.0 8.0 0.00 0.35 0.35 71 1001.1
20260505024551 74 151 0.0 4.0 0.00 0.00 0.00 53 1007.4
20260505024533 63 190 3.0 8.0 0.00 0.35 0.35 71 1000.9
20260505024006 64 250 2.0 7.0 0.00 0.35 0.35 71 1000.7
20260505023503 64 219 2.0 7.0 0.00 0.35 0.35 71 1000.5
20260505023052 75 159 0.0 3.0 0.00 0.00 0.00 53 1007.3
20260505023010 64 196 2.0 8.0 0.00 0.35 0.35 72 1000.3
20260505022503 64 211 1.0 8.0 0.00 0.35 0.35 71 1000.3
20260505022003 64 217 2.0 7.0 0.00 0.35 0.35 72 1000.0
20260505021547 75 124 1.0 7.0 0.00 0.00 0.00 52 1007.3
20260505021528 64 196 2.0 7.0 0.00 0.35 0.35 72 999.8
20260505021011 64 194 2.0 6.0 0.00 0.35 0.35 72 999.4
20260505020507 64 193 3.0 7.0 0.00 0.35 0.35 72 999.5
20260505020046 76 110 1.0 4.0 0.00 0.00 0.00 52 1006.7
20260505020028 64 186 1.0 10.0 0.00 0.35 0.35 72 999.4
20260505015508 64 229 4.0 10.0 0.00 0.35 0.35 72 999.4
20260505015007 64 212 2.0 10.0 0.00 0.35 0.35 73 999.4
20260505014542 76 106 1.0 6.0 0.00 0.00 0.00 51 1007.1
20260505014529 64 214 2.0 9.0 0.00 0.35 0.35 73 999.4
20260505014012 64 250 4.0 14.0 0.00 0.35 0.35 73 999.3
20260505013509 64 204 2.0 14.0 0.00 0.35 0.35 73 999.3
20260505013039 77 86 1.0 6.0 0.00 0.00 0.00 50 1006.9
20260505013025 64 243 5.0 12.0 0.00 0.35 0.35 73 999.2
20260505012506 64 179 4.0 12.0 0.00 0.35 0.35 74 999.1
20260505012003 64 235 5.0 11.0 0.00 0.35 0.35 76 999.0
20260505011555 77 146 1.0 5.0 0.00 0.00 0.00 49 1006.6
20260505011516 64 188 2.0 11.0 0.00 0.35 0.35 76 999.0
20260505011005 64 171 4.0 10.0 0.00 0.35 0.35 77 998.8
20260505010503 64 171 5.0 12.0 0.00 0.35 0.35 77 998.7
20260505010035 78 155 0.0 4.0 0.00 0.00 0.00 48 1006.5
20260505010018 64 186 5.0 12.0 0.00 0.35 0.35 78 998.8
20260505005504 63 167 3.0 9.0 0.00 0.35 0.35 79 998.8
20260505005008 63 196 4.0 9.0 0.00 0.35 0.35 79 998.8
20260505004541 63 171 3.0 7.0 0.00 0.35 0.35 80 998.7
20260505004534 79 155 1.0 6.0 0.00 0.00 0.00 47 1006.5
20260505004006 63 180 2.0 6.0 0.00 0.35 0.35 80 998.4
20260505003509 63 148 2.0 9.0 0.00 0.35 0.35 81 998.3
20260505003029 80 172 1.0 5.0 0.00 0.00 0.00 46 1006.9
20260505003025 63 209 3.0 9.0 0.00 0.35 0.35 82 998.3
20260505002511 63 195 2.0 11.0 0.04 0.35 0.35 83 998.2
20260505002012 63 189 4.0 12.0 0.24 0.35 0.35 85 998.4
20260505001527 81 162 2.0 5.0 0.00 0.00 0.00 44 1007.1
20260505001010 63 184 3.0 7.0 0.35 0.35 0.35 87 998.3
20260505000506 63 199 1.0 4.0 0.35 0.35 0.35 88 998.3
20260505000034 81 154 3.0 7.0 0.00 0.00 0.00 43 1007.1
20260504235503 63 195 0.0 2.0 0.35 0.35 0.35 87 997.8
20260504235004 62 129 0.0 2.0 0.35 0.35 0.35 86 997.7
20260504234528 82 130 4.0 9.0 0.00 0.00 0.00 43 1007.3
20260504234519 62 111 0.0 2.0 0.35 0.35 0.35 85 997.9
20260504234007 62 111 0.0 5.0 0.35 0.35 0.35 82 998.2
20260504233513 63 90 0.0 6.0 0.35 0.35 0.35 80 998.3
20260504233024 63 186 2.0 14.0 0.35 0.35 0.35 76 998.8
20260504233019 82 176 2.0 7.0 0.00 0.00 0.00 43 1007.4
20260504232505 65 209 3.0 22.0 0.31 0.31 0.31 69 999.4
20260504232003 69 263 7.0 22.0 0.10 0.10 0.10 61 999.6
20260504231516 84 158 2.0 7.0 0.00 0.00 0.00 40 1007.6
20260504231506 72 267 5.0 11.0 0.00 0.00 0.00 53 999.0
20260504231003 73 67 3.0 10.0 0.00 0.00 0.00 51 998.0
20260504230503 74 56 4.0 10.0 0.00 0.00 0.00 48 998.2
20260504230015 75 255 2.0 11.0 0.00 0.00 0.00 46 997.9
20260504230011 84 200 0.0 8.0 0.00 0.00 0.00 41 1007.6
20260504225503 75 227 3.0 16.0 0.00 0.00 0.00 46 997.9
20260504225005 76 179 5.0 17.0 0.00 0.00 0.00 43 997.9
20260504224515 77 262 8.0 21.0 0.00 0.00 0.00 41 998.0
20260504224512 83 169 5.0 10.0 0.00 0.00 0.00 42 1007.7
20260504224006 78 158 7.0 22.0 0.00 0.00 0.00 40 998.0
20260504223507 78 186 9.0 22.0 0.00 0.00 0.00 39 998.1
20260504223023 79 202 10.0 20.0 0.00 0.00 0.00 39 998.0
20260504223002 83 151 5.0 9.0 0.00 0.00 0.00 41 1007.9
20260504222508 79 168 6.0 20.0 0.00 0.00 0.00 37 997.9
20260504222008 79 255 7.0 19.0 0.00 0.00 0.00 36 997.9
20260504221558 82 148 0.0 9.0 0.00 0.00 0.00 42 1008.1
20260504221523 80 192 8.0 19.0 0.00 0.00 0.00 35 998.0
20260504221005 81 247 6.0 19.0 0.00 0.00 0.00 34 997.9
20260504220503 82 238 7.0 14.0 0.00 0.00 0.00 34 997.8
20260504220055 83 261 0.0 7.0 0.00 0.00 0.00 43 1008.2
20260504220013 82 252 7.0 15.0 0.00 0.00 0.00 34 997.8
20260504215504 82 215 7.0 15.0 0.00 0.00 0.00 33 997.9
20260504215004 82 190 4.0 19.0 0.00 0.00 0.00 34 997.9
20260504214551 83 186 2.0 8.0 0.00 0.00 0.00 41 1008.5
20260504214518 81 238 10.0 19.0 0.00 0.00 0.00 33 998.1
20260504214003 81 179 7.0 16.0 0.00 0.00 0.00 34 998.1
20260504213503 81 163 5.0 12.0 0.00 0.00 0.00 34 998.0
20260504213049 83 162 1.0 10.0 0.00 0.00 0.00 40 1008.4
20260504213020 81 148 5.0 15.0 0.00 0.00 0.00 34 998.2
20260504212507 81 189 8.0 15.0 0.00 0.00 0.00 34 998.2
20260504212008 81 196 6.0 19.0 0.00 0.00 0.00 35 998.4
20260504211543 83 189 4.0 9.0 0.00 0.00 0.00 41 1008.7
20260504211524 80 228 7.0 19.0 0.00 0.00 0.00 35 998.4
20260504211009 80 212 8.0 19.0 0.00 0.00 0.00 35 998.4
20260504210508 79 182 7.0 17.0 0.00 0.00 0.00 35 998.5
20260504210037 83 139 1.0 10.0 0.00 0.00 0.00 41 1009.1
20260504210006 79 224 6.0 17.0 0.00 0.00 0.00 34 998.6
20260504205504 80 259 5.0 15.0 0.00 0.00 0.00 35 998.6
20260504205004 80 207 6.0 15.0 0.00 0.00 0.00 34 998.6
20260504204532 82 169 2.0 9.0 0.00 0.00 0.00 42 1009.1
20260504204509 80 254 5.0 14.0 0.00 0.00 0.00 35 998.6
20260504204005 81 214 5.0 16.0 0.00 0.00 0.00 35 998.6
20260504203503 80 211 8.0 16.0 0.00 0.00 0.00 36 998.6
20260504203029 82 204 4.0 9.0 0.00 0.00 0.00 42 1009.6
20260504203017 80 181 5.0 16.0 0.00 0.00 0.00 35 998.5
20260504202513 80 224 5.0 12.0 0.00 0.00 0.00 36 998.7
20260504202007 80 246 6.0 13.0 0.00 0.00 0.00 35 998.9
20260504201526 82 230 2.0 10.0 0.00 0.00 0.00 43 1009.9
20260504201520 80 269 7.0 14.0 0.00 0.00 0.00 36 998.9
20260504201010 80 182 6.0 15.0 0.00 0.00 0.00 36 998.9
20260504200510 80 253 6.0 15.0 0.00 0.00 0.00 34 999.0
20260504200026 79 215 8.0 16.0 0.00 0.00 0.00 35 999.2
20260504200023 82 161 4.0 10.0 0.00 0.00 0.00 42 1010.3
20260504195506 79 225 7.0 16.0 0.00 0.00 0.00 37 999.3
20260504195004 78 205 8.0 15.0 0.00 0.00 0.00 36 999.3
20260504194524 82 145 3.0 11.0 0.00 0.00 0.00 42 1010.4
20260504194509 78 232 5.0 19.0 0.00 0.00 0.00 36 999.4
20260504194004 78 240 7.0 19.0 0.00 0.00 0.00 35 999.5
20260504193505 79 213 6.0 19.0 0.00 0.00 0.00 34 999.6
20260504193017 82 168 4.0 12.0 0.00 0.00 0.00 42 1010.6
20260504192507 79 257 5.0 17.0 0.00 0.00 0.00 34 999.6
20260504192006 79 246 7.0 17.0 0.00 0.00 0.00 33 999.8
20260504191520 79 193 6.0 15.0 0.00 0.00 0.00 33 999.8
20260504191518 82 191 4.0 10.0 0.00 0.00 0.00 40 1010.7
20260504191007 79 194 9.0 15.0 0.00 0.00 0.00 32 999.9
20260504190511 78 218 8.0 14.0 0.00 0.00 0.00 32 999.9
20260504190023 78 215 7.0 20.0 0.00 0.00 0.00 31 1000.0
20260504190009 82 204 1.0 6.0 0.00 0.00 0.00 41 1010.9
20260504185508 78 297 8.0 20.0 0.00 0.00 0.00 30 1000.0
20260504185009 78 224 5.0 16.0 0.00 0.00 0.00 32 999.8
20260504184526 78 197 6.0 15.0 0.00 0.00 0.00 33 999.7
20260504184506 81 198 5.0 13.0 0.00 0.00 0.00 41 1011.1
20260504184011 78 232 7.0 14.0 0.00 0.00 0.00 33 999.8
20260504183503 78 233 8.0 14.0 0.00 0.00 0.00 34 999.9
20260504183013 78 180 6.0 13.0 0.00 0.00 0.00 34 999.9
20260504183002 81 150 0.0 6.0 0.00 0.00 0.00 42 1011.1
20260504182504 77 184 5.0 12.0 0.00 0.00 0.00 34 1000.0
20260504182003 77 221 5.0 16.0 0.00 0.00 0.00 34 1000.0
20260504181601 81 193 0.0 9.0 0.00 0.00 0.00 43 1011.6
20260504181518 77 257 7.0 21.0 0.00 0.00 0.00 33 1000.2
20260504181005 77 225 11.0 21.0 0.00 0.00 0.00 34 1000.3
20260504180513 76 238 6.0 17.0 0.00 0.00 0.00 35 1000.2
20260504180056 80 214 1.0 8.0 0.00 0.00 0.00 41 1011.9
20260504180021 76 237 8.0 20.0 0.00 0.00 0.00 34 1000.4
20260504175512 76 157 5.0 20.0 0.00 0.00 0.00 35 1000.4
20260504175008 76 199 6.0 16.0 0.00 0.00 0.00 36 1000.4
20260504174552 80 197 1.0 9.0 0.00 0.00 0.00 43 1012.0
20260504174526 76 261 9.0 16.0 0.00 0.00 0.00 35 1000.4
20260504174011 75 230 5.0 11.0 0.00 0.00 0.00 37 1000.6
20260504173507 75 165 4.0 14.0 0.00 0.00 0.00 36 1000.7
20260504173049 80 185 2.0 7.0 0.00 0.00 0.00 42 1012.2
20260504173025 75 224 7.0 18.0 0.00 0.00 0.00 35 1000.7
20260504172502 75 226 7.0 18.0 0.00 0.00 0.00 36 1000.8
20260504172004 75 242 10.0 17.0 0.00 0.00 0.00 37 1000.8
20260504171549 79 111 4.0 13.0 0.00 0.00 0.00 41 1012.5
20260504171515 75 198 5.0 15.0 0.00 0.00 0.00 37 1000.9
20260504171007 75 215 5.0 12.0 0.00 0.00 0.00 40 1001.0
20260504170506 75 177 5.0 12.0 0.00 0.00 0.00 41 1001.1
20260504151010 68 163 5.0 12.0 0.00 0.00 0.00 46 1002.7
20260504150512 68 178 3.0 15.0 0.00 0.00 0.00 48 1002.7
20260504141011 64 175 1.0 9.0 0.00 0.00 0.00 54 1003.3
20260504140511 63 257 3.0 9.0 0.00 0.00 0.00 55 1003.4
20260504130504 59 240 2.0 7.0 0.00 0.00 0.00 64 1003.9
20260504110503 50 192 1.0 6.0 0.00 0.00 0.00 80 1004.2
20260504100511 50 196 1.0 3.0 0.00 0.00 0.00 80 1004.3
20260504082003 50 176 0.0 2.0 0.00 0.00 0.00 81 1004.2
20260504081522 59 155 0.0 2.0 0.00 0.00 0.00 56 1014.7
20260504081517 50 180 0.0 2.0 0.00 0.00 0.00 81 1004.2
20260504081004 50 134 0.0 1.0 0.00 0.00 0.00 80 1004.2
20260504080504 51 206 0.0 0.0 0.00 0.00 0.00 80 1004.1